This is the latest recevied weather packets stored in our database for station/object K1LVA. If no packets are shown the sender has not sent any weather packets the latest 10 day(s).
| Time | Temp. | Humidity | Pressure | Rain* | Wind** | Luminosity | Snow |
|---|---|---|---|---|---|---|---|
| 1777822988 | 18.33° C | 68% | 1020.4 hPa | 0 mm | - | 179 W/m² | - |
| 1777822687 | 17.78° C | 68% | 1020.7 hPa | 0 mm | - | 824 W/m² | - |
| 1777822384 | 18.33° C | 71% | 1020.4 hPa | 0 mm | - | 881 W/m² | - |
| 1777822081 | 17.78° C | 69% | 1020.6 hPa | 0 mm | - | 889 W/m² | - |
| 1777821779 | 17.78° C | 72% | 1020.5 hPa | 0 mm | - | 928 W/m² | - |
| 1777821476 | 17.78° C | 72% | 1020.6 hPa | 0 mm | - | 951 W/m² | - |
| 1777821174 | 17.78° C | 74% | 1020.5 hPa | 0 mm | - | 1015 W/m² | - |
| 1777820870 | 17.22° C | 75% | 1020.5 hPa | 0 mm | - | 983 W/m² | - |
| 1777820566 | 17.22° C | 76% | 1020.3 hPa | 0 mm | - | 976 W/m² | - |
| 1777820263 | 16.67° C | 76% | 1020.4 hPa | 0 mm | - | 815 W/m² | - |
| 1777819961 | 16.11° C | 76% | 1020.4 hPa | 0 mm | - | 952 W/m² | - |
| 1777819658 | 16.11° C | 83% | 1020.5 hPa | 0 mm | - | 922 W/m² | - |
| 1777819356 | 15.56° C | 87% | 1020.4 hPa | 0 mm | - | 907 W/m² | - |
| 1777819052 | 15.56° C | 85% | 1020.7 hPa | 0 mm | - | 195 W/m² | - |
| 1777818750 | 15.56° C | 88% | 1020.5 hPa | 0 mm | - | 150 W/m² | - |
| 1777818446 | 15° C | 88% | 1020.3 hPa | 0 mm | - | 124 W/m² | - |
| 1777818143 | 15° C | 91% | 1020.6 hPa | 0 mm | - | 142 W/m² | - |
| 1777817839 | 14.44° C | 91% | 1020.2 hPa | 0 mm | - | 101 W/m² | - |
| 1777817537 | 13.89° C | 95% | 1020.5 hPa | 0 mm | - | 137 W/m² | - |
| 1777817233 | 13.89° C | 97% | 1020.4 hPa | 0 mm | - | 117 W/m² | - |
| 1777816931 | 13.33° C | 99% | 1020.3 hPa | 0 mm | - | 134 W/m² | - |
| 1777816627 | 13.33° C | 99% | 1020.2 hPa | 0 mm | - | 193 W/m² | - |
| 1777816324 | 12.78° C | 99% | 1020.2 hPa | 0 mm | - | 175 W/m² | - |
| 1777816022 | 12.22° C | 99% | 1020 hPa | 0 mm | - | 92 W/m² | - |
| 1777815719 | 12.22° C | 99% | 1020 hPa | 0 mm | - | 99 W/m² | - |
* Rain latest hour (hover to see other rain measurements)
** Current wind speed in m/s (hover to see current wind gust speed)